TimeCDT,TemperatureF,Dew PointF,Humidity,Sea Level PressureIn,VisibilityMPH,Wind Direction,Wind SpeedMPH,Gust SpeedMPH,PrecipitationIn,Events,Conditions,WindDirDegrees,DateUTC
12:40 AM,71.6,71.6,100,29.89,7.0,ESE,4.6,-,N/A,,Mostly Cloudy,110,2013-09-20 05:40:00
1:40 AM,71.6,71.6,100,29.90,3.0,SSE,5.8,-,N/A,Rain-Thunderstorm,Thunderstorms and Rain,160,2013-09-20 06:40:00
2:40 AM,69.8,69.8,100,29.85,5.0,SE,5.8,-,N/A,Rain-Thunderstorm,Light Thunderstorms and Rain,130,2013-09-20 07:40:00
3:40 AM,71.6,71.6,100,29.90,7.0,ENE,4.6,-,N/A,,Overcast,70,2013-09-20 08:40:00
4:41 AM,71.6,71.6,100,29.88,6.0,ESE,4.6,-,N/A,Rain,Light Rain,110,2013-09-20 09:41:00
5:40 AM,71.6,71.6,100,29.90,6.0,ESE,4.6,-,N/A,,Overcast,110,2013-09-20 10:40:00
6:40 AM,73.4,73.4,100,29.86,7.0,East,6.9,-,N/A,,Mostly Cloudy,100,2013-09-20 11:40:00
7:45 AM,73.4,73.4,100,29.90,7.0,ESE,6.9,-,N/A,,Mostly Cloudy,110,2013-09-20 12:45:00
8:42 AM,75.2,75.2,100,29.91,7.0,ESE,9.2,-,N/A,,Overcast,110,2013-09-20 13:42:00
9:40 AM,77.0,75.2,94,29.96,7.0,ESE,11.5,-,N/A,,Overcast,110,2013-09-20 14:40:00
10:43 AM,80.6,77.0,89,29.92,7.0,ESE,18.4,-,N/A,,Mostly Cloudy,110,2013-09-20 15:43:00
11:43 AM,82.4,77.0,84,29.90,7.0,ESE,20.7,-,N/A,,Mostly Cloudy,120,2013-09-20 16:43:00
12:40 PM,82.4,75.2,79,29.86,7.0,ESE,20.7,-,N/A,,Mostly Cloudy,110,2013-09-20 17:40:00
1:42 PM,82.4,77.0,84,29.85,7.0,ESE,19.6,-,N/A,,Mostly Cloudy,110,2013-09-20 18:42:00
2:46 PM,82.4,75.2,79,29.82,7.0,ESE,18.4,-,N/A,,Mostly Cloudy,110,2013-09-20 19:46:00
3:46 PM,82.4,75.2,79,29.82,8.0,ESE,17.3,-,N/A,,Mostly Cloudy,110,2013-09-20 20:46:00
4:41 PM,80.6,75.2,84,29.81,8.0,ESE,16.1,-,N/A,,Mostly Cloudy,120,2013-09-20 21:41:00
5:51 PM,78.8,75.2,89,29.82,8.0,ESE,13.8,-,N/A,,Mostly Cloudy,120,2013-09-20 22:51:00
6:42 PM,77.0,75.2,94,29.82,8.0,ESE,6.9,-,N/A,,Scattered Clouds,120,2013-09-20 23:42:00
7:44 PM,75.2,75.2,100,29.84,7.0,SE,5.8,-,N/A,,Scattered Clouds,130,2013-09-21 00:44:00
8:45 PM,75.2,75.2,100,29.84,7.0,SE,8.1,-,N/A,,Scattered Clouds,130,2013-09-21 01:45:00
9:43 PM,75.2,75.2,100,29.88,7.0,SE,4.6,-,N/A,,Scattered Clouds,130,2013-09-21 02:43:00
10:41 PM,73.4,71.6,94,29.86,7.0,SE,3.5,-,N/A,,Scattered Clouds,130,2013-09-21 03:41:00
11:48 PM,73.4,73.4,100,29.87,7.0,East,4.6,-,N/A,,Scattered Clouds,100,2013-09-21 04:48:00